Вернуться в каталог

FENGYUN 1C DEB

АктивенPO
NORAD 33647·DEBRIS·🇨🇳 China

Запущен May 10, 1999 с Taiyuan Satellite Launch Center

Loading…

Ближайшие Пролёты (ближайшие 24 часа)

TLE

УстаревшееSource: Space-Track

Эпоха: Aug 19, 2026, 07:56 UTC

1 33647U 99025DEG 26231.33094191  .00001956  00000-0  12695-2 0  9998
2 33647  98.1933  62.5186 0244141 120.3276 242.2277 13.89993552663110

Отслеживайте FENGYUN 1C DEB в реальном времени с AllMySat

Download on the App Store